Rockenbach Airport

Jump to: basic info | weather | runways | comments

Related pages: nearby airports | nearby navaids | notams | map

Basic information (top)

Codes: LL97
Location: lon 42.338902, lat -88.084801, elev 800 ft / 244 m msl
Status: small_airport

Weather (top)

Current conditions for Waukegan Regional Airport 11nm (20km) ENE (rec'd 2015/04/18 17:55Z):

KUGN 181755Z 01011KT 10SM CLR 12/03 A3011 RMK AO2 SLP197 T01220028 10161 20100 51004

Airport forecast for Kenosha Regional Airport 17nm (31km) NNE (rec'd 2015/04/18 18:21Z):

TAF KENW 181720Z 1818/1918 03014G22KT P6SM SCT250 
     FM190200 06010KT P6SM SCT200 
     FM190500 09008KT P6SM BKN150 
     FM191500 11011KT P6SM BKN100

Runways (top)

N/S: 2,000 x 100 ft (610 x 30 m) — grass — not lighted

Latest comments (top)

No comments yet for Rockenbach Airport

More... (top)

See also NOTAMs and nearby airports and navaids, or visit the Rockenbach Airport page at the main OurAirports website..